Overview Statistics Trail Chart Weather Telemetry Raw packets
 

This is the latest recevied weather packets stored in our database for station/object F5TND-14. If no packets are shown the sender has not sent any weather packets the latest 10 day(s).

<< 52 53 54 55 56 57 58 >>
Time Temp. Humidity Pressure Rain* Wind** Luminosity Snow
1787758372 30.56° C 40% 1007.3 hPa - - - -
1787757774 30° C 41% 1007.5 hPa - - - -
1787757180 29.44° C 43% 1007.7 hPa - - - -
1787756572 26.11° C 53% 1007.7 hPa - - - -
1787755973 26.11° C 52% 1007.9 hPa - - - -
1787755375 26.11° C 52% 1008.1 hPa - - - -
1787754767 26.11° C 53% 1008.4 hPa - - - -
1787754167 26.11° C 53% 1008.5 hPa - - - -
1787753566 26.11° C 53% 1008.7 hPa - - - -
1787752966 26.11° C 53% 1008.7 hPa - - - -
1787752365 25.56° C 53% 1008.8 hPa - - - -
1787751765 25.56° C 53% 1009 hPa - - - -
1787751164 26.11° C 53% 1009.3 hPa - - - -
1787750566 25.56° C 54% 1009.3 hPa - - - -
1787749963 25.56° C 54% 1009.6 hPa - - - -
1787749362 25.56° C 54% 1009.7 hPa - - - -
1787748767 25.56° C 54% 1010 hPa - - - -
1787748161 25° C 55% 1010.3 hPa - - - -
1787747572 25° C 55% 1010.6 hPa - - - -
1787746964 25° C 55% 1010.6 hPa - - - -
1787746359 24.44° C 56% 1010.7 hPa - - - -
1787745759 25° C 55% 1011 hPa - - - -
1787745164 25° C 55% 1011.2 hPa - - - -
1787744558 24.44° C 56% 1011.4 hPa - - - -
1787743957 24.44° C 56% 1011.6 hPa - - - -

* Rain since midnight (hover to see other rain measurements)
** Current wind speed in m/s (hover to see current wind gust speed)